Content
SEND FEEDBACK

Daily
Averages
Monthly
Summary
United States of America

WILMINGTON, NORTH CAROLINA


Home > North America > United States > North Carolina
Elevation: 21 meters     Latitude: 34 16N     Longitude: 077 54W

WEATHER
 
SELECT A DAY
Number of Records: 209,164;   Date Range: 1/1/95 - 9/21/14
 
SHARE

PRINT THIS DATA

[ ← Previous Day ]
WEATHER ALMANAC - 5 APRIL, 2013
[ Next Day → ]
[ °F ]   °C
Weather ElementAverageHighLow
Temperature9.4 °C15 °C (5:45 pm)6 °C (7:37 am)
Dewpoint7.2 °C10 °C (12:31 am)5 °C (7:37 am)
Humidity87 %100 % (2:11 am)63 % (5:45 pm)
Barometer1012.2 hPa1016.9 hPa (11:53 pm)1009.1 hPa (12:31 am)
Wind Speed13.7 km/h25.9 km/h (3:17 am)
Wind Gust38.9 km/h (3:53 am)
Weather ElementAverage
Visibility11.7 km
Wind DirectionSW (219.4 °)

Weather ElementTotal
Precipitation---
Heating Degree Days7.8 (Base 18.3)
Growing Degree Days0.5 (Base 10)
Averaged from 32 records on 5 April, 2013
WEATHER CONDITIONS BREAKOUT
WIND DIRECTION BREAKOUT
WEATHER BY HOUR - 5 APRIL, 2013
[ °F ]   °C
Local TimeTemperatureDewpointHumidityBarometerVisibilityWind DirectionWind SpeedGust SpeedPrecipitationEventsConditions
12:31 AM11 °C10 °C94 %1009.1 hPa2.9 kmWNW (290°)16.7 km/hOvercast
12:53 AM10 °C9.4 °C96 %1009.5 hPa2.4 kmWest (280°)13 km/hOvercast
1:07 AM10 °C9 °C94 %1009.5 hPa1.9 kmWest (280°)14.8 km/hOvercast
1:53 AM8.9 °C8.3 °C96 %1009.5 hPa1.9 kmWest (280°)20.4 km/hOvercast
2:11 AM8 °C8 °C100 %1009.5 hPa2.4 kmWest (280°)20.4 km/hOvercast
2:26 AM8 °C8 °C100 %1009.5 hPa3.2 kmWNW (290°)18.5 km/hOvercast
2:53 AM7.8 °C7.2 °C96 %1009.8 hPa4 kmWNW (290°)24.1 km/hOvercast
3:17 AM7 °C7 °C100 %1009.8 hPa6.4 kmWNW (300°)25.9 km/hOvercast
3:53 AM6.7 °C6.1 °C96 %1010.5 hPa6.4 kmWNW (300°)25.9 km/h38.9 km/hOvercast
4:53 AM6.1 °C5.6 °C97 %1010.5 hPa8 kmWNW (300°)20.4 km/hOvercast
5:53 AM6.1 °C5.6 °C97 %1010.8 hPa12.9 kmNW (310°)16.7 km/hOvercast
6:53 AM6.1 °C5.6 °C97 %1011.5 hPa14.5 kmNW (320°)20.4 km/hOvercast
7:37 AM6 °C5 °C93 %1011.9 hPa16.1 kmNNW (330°)16.7 km/hOvercast
7:53 AM6.1 °C5 °C93 %1011.9 hPa16.1 kmNNW (330°)16.7 km/hOvercast
8:53 AM6.7 °C5.6 °C93 %1012.2 hPa16.1 kmNNW (340°)18.5 km/hOvercast
9:53 AM7.8 °C6.1 °C89 %1013.5 hPa16.1 kmNNW (330°)9.3 km/hOvercast
10:53 AM9.4 °C7.2 °C86 %1012.9 hPa16.1 kmNorth (350°)13 km/hOvercast
11:11 AM9 °C7 °C87 %1013.2 hPa16.1 kmNorth (360°)11.1 km/hOvercast
11:53 AM10 °C7.2 °C83 %1013.9 hPa16.1 kmNorth (360°)7.4 km/hOvercast
12:53 PM11.1 °C7.8 °C80 %1013.9 hPa16.1 kmNNW (340°)11.1 km/hOvercast
1:53 PM11.1 °C7.2 °C77 %1013.2 hPa16.1 kmNorth (10°)16.7 km/hOvercast
2:53 PM12.2 °C7.8 °C75 %1012.9 hPa16.1 kmVariable9.3 km/hOvercast
3:53 PM13.3 °C7.2 °C67 %1012.5 hPa16.1 kmNorth (10°)16.7 km/hOvercast
4:53 PM13.9 °C7.8 °C67 %1012.5 hPa16.1 kmNNE (20°)13 km/hScattered Clouds
5:45 PM15 °C8 °C63 %1012.9 hPa16.1 kmNorth (350°)13 km/hMostly Cloudy
5:53 PM14.4 °C7.8 °C65 %1012.9 hPa16.1 kmNorth (10°)11.1 km/hMostly Cloudy
6:53 PM14.4 °C7.8 °C65 %1013.5 hPa16.1 kmNorth (350°)11.1 km/hScattered Clouds
7:53 PM12.2 °C7.8 °C75 %1014.6 hPa16.1 kmNorth (10°)5.6 km/hClear
8:53 PM10 °C7.8 °C86 %1015.6 hPa16.1 kmCalmClear
9:53 PM8.3 °C6.7 °C90 %1016.3 hPa16.1 kmCalmClear
10:53 PM7.8 °C6.7 °C93 %1016.6 hPa6.4 kmCalmClear
11:53 PM7.2 °C6.1 °C93 %1016.9 hPa14.5 kmCalmClear
Hourly data recorded from KILM, located 0 kilometers away from Wilmington, North Carolina







STORIES FROM OUR PARTNERS